リニア彗星

C/2008 R3 ( LINEAR )

English version
Home page
Total 6,336 html files since Dec. 4, 1995
Updated on November 30, 2008

---------------------------------------------------------------------

・ プロフィール

発見日 2008年9月7日
発見光度 18.5等
発見者 Lincoln Laboratory Near-Earth Asteroid Research project

・ 写真集

・ 軌道要素

Epoch 2008 Nov. 30.0 TT = JDT 2454800.5
T 2008 Nov. 22.48273 TT                                 MPC
q   1.9088599            (2000.0)            P               Q
n   0.01259485     Peri.   84.15100     +0.72569046     +0.06448373
a  18.2953514      Node   270.56180     -0.35804292     +0.88556112
e   0.8956642      Incl.   43.23763     +0.58751904     +0.46002537
P  78.25

・ 星図

・ 光度変化

        m1 = 12.0 + 5 logΔ + 10.0 log r

---------------------------------------------------------------------

軌道要素はM.P.E.C. 2008-U21に掲載されたものです。
星図はステラナビゲータ Ver.8 (アストロアーツ) で作成したものです。
光度グラフはComet for Windowsで作成したものです。

---------------------------------------------------------------------

Copyright(C) 1995-2008 Seiichi Yoshida (comet@aerith.net). All rights reserved.